Date String (YYYY-MM-DD hh:mm:ss) UTC,Instrument flags,absolute air pressure of the measurement (hPa),sample flow rate (lpm),inlet stack bypass flow (lpm),air temperature of the measurement (°C),ambient temperature measured by the external sensor (°C),aerosol sample conditioner tube jacket temperature (°C),OPC LED temperature (°C),internal box temperature (°C),relative humidity of the measurement (%),span deviation,mass concentration of particles derived from Lorenz-Mie calculation of OPC scattering (μg/m³),mass concentration of particles derived from Lorenz-Mie calculation of OPC scattering (μg/m³),mass concentration of particles derived from Lorenz-Mie calculation of OPC scattering (μg/m³)
DateTimeUTC,F1_M11,P_M11,Q1_M11,Q2_M11,T1_M11,T2_M11,T3_M11,T4_M11,T5_M11,U1_M11,ZSPAN_M11,X2_M11,X0_M11,X1_M11
2023-12-04 10:00:00,SystemResetWarning,0825.8,5.01,000.00,018.8,017.8,000.0,027.2,020.0,13.2,0000.0,0002.22,0004.30,0001.52
2023-12-04 10:01:00,SystemResetWarning,0825.7,5.00,000.00,018.8,017.7,000.0,027.2,020.0,13.2,0000.0,0002.22,0004.23,0001.52
2023-12-04 10:02:00,SystemResetWarning,0825.7,5.00,000.00,018.8,017.7,000.0,027.2,020.0,13.4,0000.0,0002.26,0004.65,0001.53
2023-12-04 10:03:00,SystemResetWarning,0825.7,5.00,000.00,018.8,017.7,000.0,027.2,020.0,13.5,0000.0,0002.26,0005.60,0001.54
2023-12-04 10:04:00,SystemResetWarning,0825.7,5.00,000.00,018.8,017.7,000.0,027.2,020.0,13.7,0000.0,0002.23,0005.33,0001.55
2023-12-04 10:05:00,SystemResetWarning,0825.7,5.01,000.00,018.8,017.7,000.0,027.2,020.0,13.5,0000.0,0002.16,0005.04,0001.53
2023-12-04 10:06:00,SystemResetWarning,0825.7,5.00,000.00,018.8,017.7,000.0,027.2,020.0,13.5,0000.0,0002.10,0005.92,0001.48
2023-12-04 10:07:00,SystemResetWarning,0825.8,5.00,000.00,018.8,017.7,000.0,027.2,020.0,13.5,0000.0,0002.04,0006.01,0001.44
2023-12-04 10:08:00,SystemResetWarning,0825.7,4.99,000.00,018.8,017.7,000.0,027.2,020.0,13.6,0000.0,0002.01,0005.98,0001.42
2023-12-04 10:09:00,SystemResetWarning,0825.7,5.00,000.00,018.8,017.7,000.0,027.2,020.0,14.4,0000.0,0001.98,0006.02,0001.39
2023-12-04 10:10:00,SystemResetWarning,0825.8,5.00,000.00,018.8,017.7,000.0,027.2,020.0,14.4,0000.0,0001.93,0005.97,0001.37
2023-12-04 10:11:00,SystemResetWarning,0825.9,5.00,000.00,018.7,017.7,000.0,027.2,020.0,14.1,0000.0,0001.87,0005.79,0001.34
2023-12-04 10:12:00,SystemResetWarning,0825.9,4.99,000.00,018.7,017.7,000.0,027.2,020.0,14.3,0000.0,0001.80,0005.54,0001.30
2023-12-04 10:13:00,SystemResetWarning,0825.9,5.00,000.00,018.8,017.7,000.0,027.2,020.0,14.4,0000.0,0001.72,0005.42,0001.28
2023-12-04 10:14:00,SystemResetWarning,0825.9,5.00,000.00,018.8,017.7,000.0,027.2,020.0,14.4,0000.0,0001.66,0004.06,0001.25
2023-12-04 10:15:00,SystemResetWarning,0825.9,5.00,000.00,018.8,017.7,000.0,027.2,020.0,14.3,0000.0,0001.58,0003.75,0001.22
2023-12-04 10:16:00,SystemResetWarning,0825.9,5.00,000.00,018.8,017.8,000.0,027.2,020.0,14.3,0000.0,0001.56,0003.84,0001.20
2023-12-04 10:17:00,SystemResetWarning,0826.0,5.00,000.00,018.8,017.7,000.0,027.2,020.0,14.8,0000.0,0001.59,0003.18,0001.19
2023-12-04 10:18:00,SystemResetWarning,0825.9,5.00,000.00,018.8,017.7,000.0,027.2,020.0,14.4,0000.0,0001.61,0003.48,0001.17
2023-12-04 10:19:00,SystemResetWarning,0825.9,5.00,000.00,018.8,017.7,000.0,027.2,020.0,14.0,0000.0,0001.58,0003.63,0001.15
2023-12-04 10:20:00,SystemResetWarning,0826.0,5.00,000.00,018.8,017.7,000.0,027.2,020.0,13.9,0000.0,0001.55,0003.78,0001.12
2023-12-04 10:21:00,SystemResetWarning,0825.9,5.00,000.00,018.8,017.7,000.0,027.2,020.0,13.8,0000.0,0001.58,0003.87,0001.11
2023-12-04 10:22:00,SystemResetWarning,0826.0,5.00,000.00,018.8,017.7,000.0,027.1,020.0,13.7,0000.0,0001.62,0003.99,0001.10
2023-12-04 10:23:00,SystemResetWarning,0825.9,5.00,000.00,018.8,017.7,000.0,027.1,020.4,13.4,0000.0,0001.67,0004.80,0001.10
2023-12-04 10:24:00,SystemResetWarning,0826.2,5.01,000.00,018.9,018.3,000.0,027.2,020.8,13.1,0000.0,0001.67,0005.80,0001.09
2023-12-04 10:25:00,SystemResetWarning,0826.2,5.00,000.00,019.0,018.7,000.0,027.2,020.8,13.1,0000.0,0001.69,0005.94,0001.05
2023-12-04 10:26:00,SystemResetWarning,0826.2,4.99,000.00,019.0,018.7,000.0,027.2,020.6,13.0,0000.0,0001.71,0006.08,0001.03
2023-12-04 10:27:00,SystemResetWarning,0826.2,4.99,000.00,019.0,018.6,000.0,027.2,020.4,13.1,0000.0,0001.72,0006.26,0001.02
2023-12-04 10:28:00,SystemResetWarning,0826.2,5.01,000.00,019.0,018.5,000.0,027.2,020.3,13.1,0000.0,0001.71,0006.15,0001.02
2023-12-04 10:29:00,SystemResetWarning,0826.2,5.01,000.00,019.0,018.5,000.0,027.2,020.2,13.1,0000.0,0001.74,0005.94,0001.05
2023-12-04 10:30:00,SystemResetWarning,0826.1,5.01,000.00,019.0,018.4,000.0,027.2,020.2,13.2,0000.0,0001.73,0005.74,0001.06
2023-12-04 10:31:00,SystemResetWarning,0826.1,5.00,000.00,019.0,018.3,000.0,027.2,020.2,14.3,0000.0,0001.75,0005.49,0001.08
2023-12-04 10:32:00,SystemResetWarning,0826.1,4.99,000.00,019.0,018.3,000.0,027.2,020.1,14.4,0000.0,0001.75,0005.37,0001.11
2023-12-04 10:33:00,SystemResetWarning,0826.0,4.99,000.00,018.9,018.2,000.0,027.2,020.1,14.4,0000.0,0001.73,0005.44,0001.13
2023-12-04 10:34:00,SystemResetWarning,0826.2,5.00,000.00,018.9,018.2,000.0,027.2,020.0,14.6,0000.0,0001.73,0005.56,0001.16
2023-12-04 10:35:00,SystemResetWarning,0826.2,5.01,000.00,018.9,018.1,000.0,027.2,020.0,14.6,0000.0,0001.72,0004.12,0001.18
2023-12-04 10:36:00,SystemResetWarning,0826.2,5.00,000.00,018.9,018.1,000.0,027.2,020.0,14.6,0000.0,0001.72,0003.80,0001.21
2023-12-04 10:37:00,SystemResetWarning,0826.2,5.00,000.00,018.9,018.1,000.0,027.2,020.0,15.0,0000.0,0001.76,0003.77,0001.26
2023-12-04 10:38:00,SystemResetWarning,0826.2,5.00,000.00,018.9,018.1,000.0,027.2,020.0,14.9,0000.0,0001.77,0003.52,0001.28
2023-12-04 10:39:00,SystemResetWarning,0826.1,5.00,000.00,018.9,018.1,000.0,027.2,020.0,14.5,0000.0,0001.79,0003.59,0001.27
2023-12-04 10:40:00,SystemResetWarning,0826.2,4.99,000.00,018.9,018.1,000.0,027.2,020.0,14.0,0000.0,0001.69,0003.43,0001.22
2023-12-04 10:41:00,SystemResetWarning,0826.2,4.99,000.00,018.9,018.1,000.0,027.2,020.0,14.2,0000.0,0001.66,0003.18,0001.20
2023-12-04 10:42:00,SystemResetWarning,0826.2,5.00,000.00,018.8,018.0,000.0,027.2,020.0,14.9,0000.0,0001.63,0003.10,0001.16
2023-12-04 10:43:00,SystemResetWarning,0826.0,5.00,000.00,018.8,018.0,000.0,027.2,020.0,15.3,0000.0,0001.56,0003.07,0001.11
2023-12-04 10:44:00,SystemResetWarning,0826.0,5.00,000.00,018.8,018.0,000.0,027.2,020.0,16.3,0000.0,0001.51,0002.85,0001.06
2023-12-04 10:45:00,SystemResetWarning,0826.0,5.00,000.00,018.8,017.9,000.0,027.2,020.0,16.7,0000.0,0001.43,0003.24,0001.00
2023-12-04 10:46:00,SystemResetWarning,0826.1,5.00,000.00,018.8,017.9,000.0,027.2,020.0,16.7,0000.0,0001.33,0003.07,0000.94
2023-12-04 10:47:00,SystemResetWarning,0826.0,5.00,000.00,018.8,017.9,000.0,027.2,020.0,16.6,0000.0,0001.26,0003.09,0000.89
2023-12-04 10:48:00,SystemResetWarning,0826.1,5.00,000.00,018.8,017.9,000.0,027.2,020.0,16.5,0000.0,0001.20,0003.02,0000.86
2023-12-04 10:49:00,SystemResetWarning,0826.1,5.01,000.00,018.8,017.9,000.0,027.2,020.0,16.4,0000.0,0001.18,0003.03,0000.83
2023-12-04 10:50:00,SystemResetWarning,0826.0,5.00,000.00,018.8,017.9,000.0,027.2,020.0,16.3,0000.0,0001.11,0002.89,0000.81
2023-12-04 10:51:00,SystemResetWarning,0826.1,5.00,000.00,018.8,017.9,000.0,027.2,020.0,16.4,0000.0,0001.12,0003.18,0000.79
2023-12-04 10:52:00,SystemResetWarning,0826.0,5.01,000.00,018.8,017.9,000.0,027.2,020.0,16.7,0000.0,0001.04,0004.21,0000.73
2023-12-04 10:53:00,SystemResetWarning,0826.1,4.99,000.00,018.8,017.9,000.0,027.2,020.0,16.9,0000.0,0000.93,0003.97,0000.67
2023-12-04 10:54:00,SystemResetWarning,0826.1,5.00,000.00,018.8,017.8,000.0,027.2,020.0,17.0,0000.0,0000.84,0003.73,0000.62
2023-12-04 10:55:00,SystemResetWarning,0826.1,5.00,000.00,018.8,017.8,000.0,027.2,020.0,17.0,0000.0,0000.77,0003.61,0000.56
2023-12-04 10:56:00,SystemResetWarning,0826.2,5.01,000.00,018.8,017.9,000.0,027.2,020.0,17.1,0000.0,0000.70,0002.90,0000.52
2023-12-04 10:57:00,SystemResetWarning,0826.2,5.00,000.00,018.8,017.9,000.0,027.2,020.0,17.1,0000.0,0000.68,0002.72,0000.49
2023-12-04 10:58:00,SystemResetWarning,0826.2,5.00,000.00,018.8,017.9,000.0,027.2,020.0,17.1,0000.0,0000.64,0002.61,0000.45
2023-12-04 10:59:00,SystemResetWarning,0826.1,5.00,000.00,018.8,017.9,000.0,027.2,020.0,17.2,0000.0,0000.55,0002.34,0000.39
